Location: �clusier
(49.9361°N, 2.7869°E)
Time: 17:55:04
(UTC+00:00)

Cosmos 1184 Rocket - Visible Passes

Search period start: 21 October 2021 00:00
Search period end: 31 October 2021 00:00
Orbit: 396 x 410 km, 81.2° (Epoch: 21 October)

Date Brightness Start Highest point End Pass type
(mag) Time Alt. Az. Time Alt. Az. Time Alt. Az.
21 Oct 5.6 03:54:39 10° SE 03:56:54 18° E 03:59:09 10° NE visible
21 Oct 3.6 05:27:28 10° SW 05:30:15 27° WNW 05:33:03 10° N visible
22 Oct 2.6 04:36:54 10° S 04:40:02 85° ESE 04:43:14 10° NNE visible
23 Oct 5.1 03:49:04 20° ESE 03:50:04 24° E 03:52:41 10° NE visible
23 Oct 4.0 05:21:52 14° WSW 05:23:34 21° WNW 05:26:04 10° NNW visible
24 Oct 2.6 04:33:29 64° NW 04:33:29 64° NW 04:36:26 10° N visible
25 Oct 5.3 03:44:48 20° NE 03:44:48 20° NE 03:46:03 10° NNE visible
25 Oct 4.6 05:17:33 15° NW 05:17:33 15° NW 05:18:55 10° NNW visible
26 Oct 4.9 04:28:38 17° N 04:28:38 17° N 04:29:31 10° N visible
